Regional Weather Roundup
Issued by NWS Wakefield, VA

Home | Current Version | Previous Version | Text Only | Print | Product List | Glossary Off
Versions: 1 2 3 4 5 6 7 8 9 10 11 12 13 14 15 16 17 18 19 20 21 22 23 24 25 26 27 28 29 30 31 32 33 34 35 36 37 38 39 40 41 42 43 44 45 46 47 48 49 50

265
ASUS41 KAKQ 221715
RWRAKQ

REGIONAL WEATHER ROUNDUP
NATIONAL WEATHER SERVICE WAKEFIELD VA
100 PM EDT TUE AUG 22 2017

Note: "fair" indicates few or no clouds below 12,000 feet with no
significant weather and/or obstructions to visibility. * = Denotes
station may not report precipitation (e.g., rain,snow,etc.),
thunder or fog.

VAZ042-051-052>054-056-221800-
NORTHERN VIRGINIA

CITY           SKY/WX    TMP DP  RH WIND       PRES   REMARKS
WASH NATIONAL  MOSUNNY   88  77  69 S13       29.98F HX 100
DULLES         MOSUNNY   89  73  59 SW12      29.98F HX  97
FORT BELVOIR   SUNNY     88  74  63 S9        29.98F HX  97
QUANTICO       MOSUNNY   89  79  72 S12       29.99F HX 104
FREDERICKSBRG* SUNNY     91  74  58 SW14      29.99F HX 100
STAFFORD*      SUNNY     88  74  62 SW9G18    30.03F HX  96
WARRENTON      SUNNY     92  69  47 S10       29.99F HX  96
CULPEPER*      SUNNY     91  72  52 S7G18     30.00F HX  99
MANASSAS*      SUNNY     90  75  61 S10       29.99F HX 100
LEESBURG*      MOSUNNY   91  75  59 S10       29.99F HX 102
WINCHESTER     SUNNY     88  68  51 SW7       29.97F
FRONT ROYAL*   MOSUNNY   90  72  55 S6        29.99F HX  96
LURAY*         SUNNY     90  68  48 S7        30.00F
$$

VAZ048-049-060>072-079>083-221800-
CENTRAL AND SOUTH CENTRAL VIRGINIA

CITY           SKY/WX    TMP DP  RH WIND       PRES   REMARKS
RICHMOND       MOSUNNY   89  74  60 S15       30.03F HX  98
CHESTERFIELD*  FAIR      89  74  60 S12       30.04F HX  98
PETERSBURG*    MOSUNNY   87  70  56 S7        30.05F
HANOVER        SUNNY     90  72  55 S14       30.03F HX  97
TAPPAHANNOCK*  SUNNY     92  68  46 S7        30.02F HX  96
QUINTON*       FAIR     N/A N/A N/A CALM      30.02F
CHARLOTTSVILLE SUNNY     92  72  51 S9G22     30.01F HX  99
GORDONSVILLE*  SUNNY     91  73  56 SW8       30.00F HX  98
ORANGE*        SUNNY     90  70  51 SW13      30.00F HX  95
LOUISA*        SUNNY     90  70  51 S8        30.01F HX  95
BUMPASS*       FAIR      89  76  65 S8        30.01F HX 100
FARMVILLE*     SUNNY     92  61  35 SW10G17   30.02F
CREWE*         FAIR      89  67  46 S7        30.04F
FORT PICKETT*  FAIR     N/A N/A N/A SW12      30.05F
CHASE CITY*    PTSUNNY   89  70  53 S5        30.06F
CLARKSVILLE*   FAIR      88  72  58 SW5       30.06F
SOUTH HILL*    MOSUNNY   88  75  65 S12       30.12F HX  97
LAWRENCEVILLE* PTSUNNY   87  74  66 SW6       30.06F HX  95
EMPORIA*       PTSUNNY   86  73  66 S5        30.07F
$$

VAZ088>098-221800-
SOUTHEAST VIRGINIA

CITY           SKY/WX    TMP DP  RH WIND       PRES   REMARKS
NORFOLK        MOSUNNY   90  74  59 SW9       30.04F HX  99
VIRGINIA BEACH MOSUNNY   88  72  58 SW14G20   30.04F
NORFOLK NAVAL  MOSUNNY   89  74  60 SW10      30.05F HX  98
WEST POINT*    SUNNY     89  71  56 SW10      30.04F HX  95
SALUDA*        FAIR      88  74  64 SW8G16    30.03S HX  96
NEWPORT NEWS   MOSUNNY   87  75  67 S13       30.04F HX  96
LANGLEY AFB    MOSUNNY   87  75  68 SW15      30.04F HX  96
FORT EUSTIS    MOSUNNY   90  76  63 S7        30.02F HX 101
WILLIAMSBURG*  SUNNY     90  75  62 CALM      30.05F HX 100
HR EXEC AP*    FAIR      88  73  62 SW8       30.02F HX  96
FRANKLIN*      MOSUNNY   87  74  66 S7        30.06F HX  95
US460-WAKEFLD  MOSUNNY   87  75  67 VRB6      30.05F HX  96
$$

VAZ020-022-025-037-045-221800-
WEST CENTRAL AND SOUTHWEST VIRGINIA

CITY           SKY/WX    TMP DP  RH WIND       PRES   REMARKS
STAUNTON*      SUNNY     88  67  50 SW9       30.05F
WAYNESBORO*    MOSUNNY   88  70  54 SW10G16   30.07F
HOT SPRINGS VA PTSUNNY   77  59  53 W14       30.22F
LYNCHBURG      SUNNY     89  68  49 SW9       30.06F
DANVILLE       MOSUNNY   89  73  59 SW8       30.07F HX  97
SOUTH BOSTON*  FAIR      90  68  48 SW7       30.06F
MARTINSVILLE   SUNNY     88  71  56 S3        30.10F
ROANOKE        MOSUNNY   89  68  49 W10       30.09F
BLACKSBURG     PTSUNNY   82  69  64 SW6       30.17F
DUBLIN*        MOSUNNY   86  67  53 SW9       30.15F
MARION*        PTSUNNY   83  52  34 W12G17    30.19F
HILLSVILLE*    PTSUNNY   80  63  56 CALM      30.17F
RICHLANDS*     PTSUNNY   79  65  63 W7        30.18F
WISE*          SUNNY     81  64  57 SW12      30.19F
ABINGDON*      PTSUNNY   83  69  61 NW10G16   30.16F
$$

MDZ021>025-VAZ099-100-221800-
SOUTHERN MARYLAND AND THE DELMARVA PENINSULA

CITY           SKY/WX    TMP DP  RH WIND       PRES   REMARKS
PATUXENT RIVER MOSUNNY   88  75  65 S13G20    30.00F HX  97
BAY BRIDGE APT SUNNY     90  75  62 S12       29.98F HX 100
LEONARDTOWN    SUNNY     88  72  58 SW10G16   30.02F
DOVER          MOSUNNY   90  73  58 S17G23    29.96F HX  98
GEORGETOWN     SUNNY     90  72  55 SW16      30.01F HX  97
EASTON         SUNNY     90  73  58 W12G17    30.03F HX  98
CAMBRIDGE      SUNNY     88  75  66 S10G16    30.00F HX  97
SALISBURY      SUNNY     88  76  67 SW10      30.01F HX  99
OCEAN CITY     MOSUNNY   85  78  80 SW12      30.03F HX  96
WALLOPS ISLAND MOSUNNY   85  79  82 S16       30.03F HX  98
ACCOMACK*      MOSUNNY   87  76  71 SW13      30.04F HX  97
$$

NCZ012>017-030>032-221800-
NORTH CENTRAL AND EASTERN NORTH CAROLINA

CITY           SKY/WX    TMP DP  RH WIND       PRES   REMARKS
ROANOKE RAPIDS FAIR      88  73  62 S9        30.06F HX  96
RALEIGH        MOSUNNY   91  71  51 VRB3      30.08F HX  97
ELIZABETH CITY SUNNY     88  77  69 S10       30.06F HX 100
AHOSKIE*         N/A     84  74  73 CALM      30.07F
EDENTON*       SUNNY     87  76  68 CALM      30.08F HX  97
CURRITUCK*     PTSUNNY   87  74  64 S8        30.07F HX  95
KILL DEVIL HLS CLOUDY    83  74  75 CALM      30.07F
MANTEO         SUNNY     85  76  74 S13       30.08F
CAPE HATTERAS  SUNNY     87  77  72 VRB7      30.10F HX  99
TARBORO*       NOT AVBL
GOLDSBORO      PTSUNNY   88  77  70 SW7       30.06F HX 100
WASHINGTON     MOSUNNY   87  74  66 S3        30.08F HX  96
GREENVILLE     MOSUNNY   86  73  66 SW6       30.08F
NEW BERN       LGT RAIN  80  78  94 SE3       30.11S FOG
WILMINGTON     PTSUNNY   87  76  69 SE8       30.09F HX  97
$$

VAZ048-221800-
ELSEWHERE

CITY           SKY/WX    TMP DP  RH WIND       PRES   REMARKS
HARRISBURG PA  MOSUNNY   89  73  59 S8        29.93F HX  97
BALTIMORE      MOSUNNY   89  74  60 S9        29.97F HX  98
ANNAPOLIS      SUNNY     90  79  70 S10       29.97F HX 106
ANDREWS AFB    SUNNY     88  73  61 S10       29.98F HX  96
PHILADELPHIA   MOSUNNY   88  73  61 SW13      29.96F HX  95
HENDERSON NC   MOSUNNY   85  69  58 SE9       30.08F
GREENSBORO     PTSUNNY   89  72  56 SW9       30.08F HX  96
ROCKY MOUNT    MOSUNNY   88  75  65 SW6       30.07F HX  97
$$

VAZ100-221800-
MARINE

STATION/POSITION TIME  TEMP    WIND        PRES    WAVE   SWELL
                       AIR SEA DIR/SP/G            HT/PER HT/PER
                 (UTC) (F)     (DEG/KT/KT) (MB)    (FT/S) (FT/S)
BRANDYWINE LGT   1642   84     220/ 15/ 16 1016.0F
CAPE MAY NJ      1636   84 77  210/  9/ 13 1015.5F
LEWES DE         1642   88 76  220/  9/ 14 1015.6F
15NM E FENWICK I 1650   79 78  200/ 16/ 19 1017.0F   3/ 4   2/10
OCEAN-CITY-INLET 1642   78 77  210/ 15/ 18 1017.2F
WACHAPREAGUE VA  1642   84 84  210/ 11/ 15 1017.3F
THOMAS POINT MD  1700   83 81  160/ 10/ 10   N/A
GOOSES REEF MD   1700   85 81  210/ 12/ 14 1016.1    1/ 2
COVE POINT MD    1642   86     210/ 15/ 17 1016.4F
SOLOMONS ISLAND  1642   86 82  210/ 12/ 16   N/A
BISHOPS HEAD MD  1642   83 84  190/ 13/ 18 1016.5F
PINEY POINT MD   1648          230/ 10/ 11   N/A
POTOMAC MD       1700   86 83  200/  8/ 10 1015.5    1/ 2
CAMBRIDGE MD     1642   89 83              1016.8F
LEWISETTA VA     1642   87 84  230/ 10/ 12 1016.2F
RAPPAHANNOCK LGT 1648          180/ 14/ 15 1017.8F
STINGRAY PT      1700   85 82  240/ 10/ 10 1017.2    1/ 2
YORK RVR RNG VA  1642   84     220/ 11/ 13 1017.5F
YORKTOWN VA      1642   86 83  210/ 10/ 15 1016.8F
JAMESTOWN VA     1650          230/  8/ 12   N/A
DOMINION TERM VA 1642   83     230/  8/ 10 1017.6F
KIPTOPEKE VA     1642      80  200/  5/  6   N/A
CHES BAY BRIDGE  1642   84 79  230/  9/ 11 1017.3F
CAPE HENRY VA    1642   86     220/  8/ 10   N/A
WILLOUBY STN VA  1642   84     240/ 10/ 12 1017.3F
S CRANEY ISL VA  1642   87     230/  8/ 12 1017.4F
CAPE HENRY BUOY  1700      81                N/A     2/12   2/12
1ST LANDING BUOY 1700   84 81              1017.0    1
64NM E OF VA BCH 1650   80 80  200/ 10/ 12 1018.9F   3/11   2/11
DUCK PIER NC     1642   82 76  130/ 11/ 12 1018.0F
44100 DUCK FRF   1635      82                N/A     2/ 9   2/12
44056 DUCK FRF   1700      82                N/A     2/12   2/12
OREGON INLET NC  1642   84 80  160/  9/ 12 1018.7F
HATTERAS NC      1642   85 83  180/  6/  9 1019.3F
DIAMOND SHLS NC  1650   83 87  200/ 10/ 12 1019.2F   3/10   3/10
CAPE LOOKOUT NC  1700   85     200/  7/  8 1019.0F
$$




USA.gov is the U.S. government's official web portal to all federal, state and local government web resources and services.